Flag for Romania Weather past 2 weeks in Cluj-Napoca, Romania

Now
66 °F

Passing clouds.


Feels Like: 66 °F
Forecast: 57 / 80 °F
Wind: 3 mph from Southwest

Location: Cluj Airport-Napoca

Current Time: Jul 3, 2015 at 11:25:10 PM

Latest Report: Jul 3, 2015 at 11:00 PM


Visibility: N/A

Pressure: 30.33 "Hg

Humidity: 83%

Dew point: 61 °F

Location of Cluj-NapocaLocation

Historic Weather in Cluj-Napoca — Graph

°F

Cluj-Napoca temperature yesterday

Maximum temperature yesterday: 79 °F (at 2:30 PM)
Minimum temperature yesterday: 59 °F (at 5:00 AM)
Average temperature yesterday: 71 °F

Past Weeks' High & Low Weather Summary

 TemperatureHumidityPressure
High81 °F (Jul 3, 3:00 PM)100% (Jun 20, 6:30 AM)30.33 "Hg (Jun 20, 6:30 AM)
Low48 °F (Jun 23, 5:00 AM)33% (Jun 19, 3:30 PM)29.80 "Hg (Jun 19, 4:00 PM)
Average65 °F74%30.03 "Hg
* Reported Jun 18 10:00 PM — Jul 3 10:00 PM, Cluj-Napoca, Weather by CustomWeather, © 2015

Note: Actual official high and low records may vary slightly from our data, if they occured in-between our weather recording intervals... More about our weather records

Advertising

Cluj-Napoca weather history for previous 24 hours

 ConditionsComfort  
Time TempWeatherWind HumidityBarometerVisibility
10:00 PM
Fri, Jul 3
70 °FPassing clouds.3 mph73%30.33 "HgN/A
9:30 PM72 °FSunny.6 mph69%30.33 "Hg10 mi
9:00 PM73 °FSunny.5 mph65%30.30 "Hg10 mi
8:30 PM77 °FSunny.3 mph54%30.30 "Hg10 mi
8:00 PM79 °FSunny.5 mph45%30.30 "Hg10 mi
7:30 PM79 °FPassing clouds.5 mph39%30.30 "HgN/A
7:00 PM81 °FPassing clouds.5 mph42%30.30 "HgN/A
6:30 PM81 °FPassing clouds.5 mph42%30.30 "HgN/A
6:00 PM81 °FScattered clouds.7 mph42%30.30 "HgN/A
5:30 PM81 °FScattered clouds.6 mph42%30.30 "HgN/A
5:00 PM81 °FScattered clouds.8 mph45%30.30 "HgN/A
4:30 PM79 °FScattered clouds.7 mph45%30.33 "HgN/A
4:00 PM79 °FScattered clouds.8 mph48%30.33 "HgN/A
3:30 PM79 °FScattered clouds.6 mph42%30.33 "HgN/A
3:00 PM81 °FScattered clouds.5 mph45%30.33 "HgN/A
2:30 PM75 °FScattered clouds.5 mph54%30.33 "HgN/A
2:00 PM77 °FScattered clouds.6 mph47%30.33 "HgN/A
1:30 PM77 °FScattered clouds.2 mph47%30.33 "HgN/A
1:00 PM75 °FScattered clouds.5 mph54%30.33 "HgN/A
12:30 PM77 °FPassing clouds.2 mph51%30.33 "HgN/A
12:00 PM73 °FPassing clouds.3 mph53%30.33 "HgN/A
11:30 AM73 °FPassing clouds.5 mph53%30.33 "HgN/A
11:00 AM72 °FPassing clouds.5 mph57%30.33 "HgN/A
10:30 AM72 °FPassing clouds.3 mph57%30.33 "HgN/A
10:00 AM70 °FSunny.2 mph60%30.33 "Hg10 mi
9:30 AM68 °FSunny.1 mph64%30.33 "Hg10 mi
9:00 AM66 °FPassing clouds.5 mph68%30.33 "HgN/A
8:30 AM64 °FSunny.7 mph73%30.33 "Hg10 mi
8:00 AM63 °FSunny.5 mph77%30.33 "Hg10 mi
7:30 AM59 °FSunny.5 mph82%30.33 "Hg10 mi
7:00 AM57 °FSunny.6 mph88%30.33 "Hg10 mi
6:30 AM57 °FClear.3 mph88%30.30 "Hg10 mi
6:00 AM55 °FClear.3 mph94%30.30 "Hg10 mi
5:30 AM55 °FClear.3 mph94%30.30 "Hg10 mi
5:00 AM57 °FClear.5 mph88%30.30 "Hg10 mi
3:00 AM59 °FClear.5 mph88%30.30 "Hg10 mi
2:00 AM59 °FClear.1 mph94%30.30 "Hg10 mi
1:00 AM63 °FPassing clouds.2 mph83%30.30 "HgN/A
12:00 AM64 °FPassing clouds.No wind73%30.27 "HgN/A
11:30 PM
Thu, Jul 2
64 °FClear.No wind73%30.27 "Hg10 mi
11:00 PM66 °FClear.1 mph68%30.27 "Hg10 mi
Weather by CustomWeather, © 2015

See weather overviewHow to use our weather pages